Location: Lafig�re
(44.4503°N, 4.0357°E)
Time: 00:13:29
(UTC+00:00)

Cosmos 2150 Rocket - Pass Details

Date: 26 January 2021
Orbit: 748 x 808 km, 74.0° (Epoch: 06 March)

Event Time Altitude Azimuth Distance (km) Brightness Sun altitude
Exits shadow 05:06:32 13° 344° (NNW) 2,128 6.1 -21.7°
Maximum altitude 05:11:18 73° 68° (ENE) 832 4.2 -20.9°
Drops below altitude 10° 05:16:42 10° 153° (SSE) 2,371 7.0 -19.9°
Sets 05:19:07 0° 155° (SSE) 3,303 7.7 -19.5°
